This is the latest recevied weather packets stored in our database for station/object N5JXS. If no packets are shown the sender has not sent any weather packets the latest 1 day(s).
| Time | Temp. | Humidity | Pressure | Rain* | Wind** | Luminosity | Snow |
|---|---|---|---|---|---|---|---|
| 1778020198 | 0.56° C | 98% | 1013.3 hPa | 1.78 mm | 0.89 m/s, 331° | 32 W/m² | - |
| 1778019895 | 0.56° C | 98% | 1012.9 hPa | 1.78 mm | 0.45 m/s, 8° | 39 W/m² | - |
| 1778019590 | 0.56° C | 98% | 1013 hPa | 0 mm | 0.45 m/s, 29° | 42 W/m² | - |
| 1778019288 | 0.56° C | 98% | 1013 hPa | 0 mm | 0 m/s | 52 W/m² | - |
| 1778018985 | 0.56° C | 98% | 1013.1 hPa | 0 mm | 0 m/s | 60 W/m² | - |
| 1778018682 | 0.56° C | 98% | 1013.1 hPa | 0 mm | 0 m/s | 59 W/m² | - |
| 1778018379 | 0.56° C | 98% | 1013.4 hPa | 1.27 mm | 0.45 m/s, 256° | 40 W/m² | - |
| 1778018078 | 0.56° C | 98% | 1013.4 hPa | 1.27 mm | 0.45 m/s, 312° | 55 W/m² | - |
| 1778017775 | 0.56° C | 98% | 1013.5 hPa | 0 mm | 0 m/s | 56 W/m² | - |
| 1778017473 | 0.56° C | 98% | 1013.4 hPa | 0 mm | 0 m/s | 61 W/m² | - |
| 1778017170 | 0.56° C | 98% | 1013.5 hPa | 0 mm | 0 m/s | 51 W/m² | - |
| 1778016867 | 0.56° C | 98% | 1013.6 hPa | 0 mm | 0 m/s | 47 W/m² | - |
| 1778016563 | 0.56° C | 98% | 1013.8 hPa | 0 mm | 0.45 m/s, 1° | 51 W/m² | - |
| 1778016260 | 0.56° C | 98% | 1013.9 hPa | 0 mm | 0 m/s | 50 W/m² | - |
| 1778015956 | 0.56° C | 98% | 1013.8 hPa | 0 mm | 0.45 m/s, 21° | 36 W/m² | - |
| 1778015654 | 0.56° C | 98% | 1014 hPa | 0 mm | 0.45 m/s, 12° | 44 W/m² | - |
| 1778015350 | 1.11° C | 98% | 1013.9 hPa | 0 mm | 0.89 m/s, 8° | 64 W/m² | - |
| 1778015048 | 1.11° C | 98% | 1014 hPa | 1.78 mm | 0.89 m/s, 353° | 70 W/m² | - |
| 1778014745 | 1.11° C | 98% | 1014.3 hPa | 1.78 mm | 0.45 m/s, 325° | 73 W/m² | - |
| 1778014443 | 1.11° C | 98% | 1014 hPa | 0 mm | 0 m/s | 95 W/m² | - |
| 1778014139 | 1.11° C | 98% | 1014.3 hPa | 0 mm | 0 m/s | 85 W/m² | - |
| 1778013837 | 1.11° C | 98% | 1014 hPa | 0 mm | 0 m/s | 98 W/m² | - |
| 1778013534 | 1.11° C | 98% | 1014.1 hPa | 1.27 mm | 0.45 m/s, 254° | 84 W/m² | - |
| 1778013230 | 1.11° C | 98% | 1014.1 hPa | 1.27 mm | 0.89 m/s, 258° | 94 W/m² | - |
| 1778012927 | 1.11° C | 98% | 1014 hPa | 0 mm | 0.89 m/s, 164° | 112 W/m² | - |
* Rain latest hour (hover to see other rain measurements)
** Current wind speed in m/s (hover to see current wind gust speed)